Temperature
14 14 14 15 12 11 13 14 14 15 15 15 16 16 14 14 15 16 14 15 15 15 15 15 15 16 16 16 16 16 16 16 16 17 17 17 17 17 17 17 17 16 16 16 16 16 16 16 16
14 14 14 14 11 12 13 13 14 15 15 15 15 15 14 14 14 15 14 15 15 15 15 15 15 15 16 16 16 16 16 16 16 16 16 17 17 17 17 16 16 16 16 16 16 16 16 16 16
13 14 14 10 11 12 15 15 14 14 15 15 14 14 14 14 14 14 14 14 15 15 15 15 15 15 15 15 16 16 16 16 16 16 16 16 16 16 16 16 16 16 16 16 16 16 16 16 16
13 14 13 11 12 12 13 14 14 14 15 15 14 13 14 14 14 14 14 14 15 15 15 15 15 15 15 15 15 15 16 16 16 16 16 16 16 16 16 16 16 16 16 16 16 16 16 16 16
14 14 11 11 12 12 12 13 14 14 14 14 14 12 13 14 14 14 14 14 15 15 15 15 15 15 15 15 15 15 15 15 15 15 15 15 15 16 16 16 16 16 16 15 15 15 15 15 15
13 10 10 11 12 12 12 14 14 13 13 14 13 12 13 14 14 14 14 14 14 14 15 15 14 14 14 14 14 14 15 15 15 15 15 15 15 15 15 15 15 15 15 15 15 15 15 15 15
12 9 10 11 11 13 13 14 13 12 12 13 14 12 13 13 14 14 14 14 14 14 14 14 14 14 14 14 14 14 14 14 14 14 14 14 14 15 15 15 15 15 15 15 15 15 15 15 15
13 9 11 10 11 13 13 13 13 13 13 14 14 12 12 13 13 13 13 13 13 13 13 14 13 13 13 13 13 13 13 14 14 14 14 14 14 14 14 14 14 14 14 14 14 14 14 14 14
13 9 10 11 11 12 13 13 13 13 13 13 13 13 13 13 13 13 13 13 13 13 13 13 13 13 13 13 13 13 13 13 13 13 13 13 13 14 14 14 14 14 14 14 14 14 14 14 14
11 9 10 11 11 12 12 12 12 12 12 12 12 13 13 13 13 13 13 13 13 13 13 13 13 13 13 13 13 13 13 13 13 13 13 13 13 13 13 13 13 13 13 13 13 13 13 14 14
10 9 10 11 12 12 12 12 12 12 11 12 13 13 13 12 12 12 12 12 12 12 12 12 12 12 12 12 12 12 12 12 12 12 12 12 12 12 12 12 13 13 13 13 13 13 13 13 13
9 9 10 11 12 12 11 11 11 11 12 13 13 13 12 12 12 12 12 12 12 12 12 12 12 12 12 12 12 12 12 12 12 12 12 12 12 12 12 12 12 12 12 12 12 12 12 12 13
9 10 10 11 11 11 11 11 11 11 12 12 12 12 12 12 12 12 11 12 11 11 11 11 11 11 11 12 12 12 12 11 11 11 11 11 11 11 11 11 11 12 12 12 12 12 12 12 12
9 9 10 10 10 11 10 10 10 11 12 12 12 12 12 12 12 11 11 11 11 11 11 11 11 11 11 11 11 11 11 11 11 11 11 11 11 11 11 11 11 11 11 11 11 11 11 11 11
10 9 9 9 9 10 10 9 9 11 11 11 11 11 11 11 11 11 11 11 11 11 11 11 11 11 11 11 11 11 11 11 10 10 10 10 10 10 10 10 10 10 10 10 10 11 11 11 11
9 8 8 9 8 9 9 9 10 11 11 10 11 11 11 11 11 11 11 11 11 11 11 11 10 10 10 10 10 10 10 10 10 10 10 10 9 9 9 9 9 10 10 10 10 10 10 10 10
8 7 8 9 8 8 8 8 9 10 10 9 10 10 10 11 11 11 11 11 10 10 10 10 10 10 10 10 10 10 10 10 10 9 9 9 9 9 9 9 9 9 9 9 9 9 9 9 10
7 7 7 8 8 7 7 7 8 9 9 9 9 10 10 10 10 10 10 10 10 10 10 10 10 10 10 10 9 9 9 9 9 9 9 9 8 8 8 8 8 8 8 8 9 9 9 9 9
7 7 7 8 8 7 7 7 8 8 8 7 8 9 9 10 10 10 10 10 9 9 9 9 9 9 9 9 9 9 9 9 9 9 8 8 8 8 8 8 8 8 8 8 8 8 8 8 8
7 7 7 8 8 7 7 7 7 7 7 8 8 9 9 10 10 10 10 10 9 9 9 9 9 9 9 9 9 9 8 8 8 8 8 8 7 7 7 7 7 7 7 7 7 7 7 7 7
7 7 7 7 7 7 7 7 8 7 7 8 9 9 9 10 9 10 9 9 9 9 9 9 9 9 8 8 8 8 8 8 8 8 7 7 7 7 7 7 7 7 7 7 7 7 7 7 7
7 7 7 7 7 6 7 7 8 7 7 7 7 8 9 9 9 9 9 9 9 9 9 8 8 8 8 8 8 8 8 7 7 7 7 7 7 7 7 7 7 6 6 6 7 7 7 7 6
7 7 6 6 6 6 5 6 7 7 7 7 6 7 8 9 9 9 9 9 9 8 8 8 8 8 8 8 8 7 7 7 7 7 7 6 6 6 6 6 6 6 6 6 6 6 6 6 6
6 6 5 4 5 6 6 5 7 6 7 7 7 7 8 9 9 9 9 8 8 8 8 8 8 8 8 8 7 7 7 7 7 7 6 6 6 6 6 6 6 6 6 6 6 6 6 6 6
6 6 6 6 5 6 5 5 6 7 6 7 7 7 8 8 8 8 8 8 8 8 8 8 8 7 7 7 7 7 7 7 6 6 6 6 6 6 6 6 6 6 6 6 6 6 6 6 6
5 6 6 7 6 6 5 5 6 7 7 7 7 7 8 8 8 8 8 8 8 8 7 7 7 7 7 7 7 7 7 6 6 6 6 6 6 6 6 6 6 6 6 6 6 6 6 6 6
5 5 5 4 5 6 5 5 5 6 6 6 6 7 7 7 8 8 8 8 8 7 7 7 7 7 7 7 7 7 6 6 6 6 6 5 5 5 6 6 6 6 6 6 6 6 6 5 5
5 4 4 5 6 7 7 6 6 7 7 6 5 5 7 7 7 7 7 7 7 7 7 7 7 7 7 7 7 6 6 6 6 6 6 5 5 5 5 5 5 6 6 5 5 5 5 5 5
5 4 4 3 4 6 7 7 7 6 7 6 5 6 7 7 7 7 7 7 7 7 7 7 7 7 7 7 6 6 6 6 6 6 5 5 5 5 5 5 5 5 5 5 5 5 5 5 5
5 5 4 5 4 3 5 7 7 6 6 5 5 6 7 7 7 7 7 7 7 7 7 7 7 7 7 6 6 6 6 6 6 5 5 5 5 5 5 5 5 5 5 5 5 5 5 5 4
Wind_Speed
4 2 3 4 5 4 3 5 3 2 2 0 2 5 7 5 4 4 2 1 1 1 3 4 7 8 8 7 7 7 7 7 7 6 7 6 6 5 5 5 4 4 4 4 5 5 5 6 7
1 1 4 5 5 2 5 5 4 4 3 3 3 4 5 3 1 4 1 0 2 2 3 4 7 8 8 8 7 7 7 6 6 6 5 5 5 5 4 4 4 4 4 4 4 4 5 6 6
1 3 4 5 4 6 5 4 5 1 1 3 3 4 4 3 2 3 1 2 3 3 4 4 7 8 8 8 8 7 7 6 6 6 5 4 4 3 3 3 3 3 4 4 4 5 5 5 5
3 4 5 3 4 5 4 2 2 3 2 3 4 4 2 1 1 2 2 3 4 3 4 5 7 7 7 7 7 8 7 6 5 5 5 4 3 3 3 3 2 3 3 3 3 4 4 4 5
4 4 4 1 4 4 3 2 2 2 2 2 4 4 1 3 2 3 3 4 4 3 4 5 7 7 7 7 7 7 7 7 6 5 4 4 4 3 2 2 2 2 2 2 3 3 4 4 4
4 4 4 4 4 3 3 2 2 3 3 2 4 4 1 1 2 2 3 3 3 3 4 5 6 7 6 6 6 6 6 6 6 5 5 5 4 4 3 2 1 1 1 2 3 3 3 3 3
5 5 5 5 3 3 2 1 4 4 3 3 4 5 1 1 1 2 3 3 3 4 4 5 5 5 5 5 5 5 5 6 6 6 5 5 5 4 4 2 2 1 1 2 2 3 3 3 3
5 5 3 3 4 4 1 2 2 4 3 2 4 6 5 4 2 3 4 4 4 3 3 3 4 4 4 3 4 4 5 5 5 5 5 4 4 4 3 3 2 2 1 2 2 3 3 3 2
4 4 4 6 6 4 1 2 1 1 3 1 1 3 3 5 4 5 4 3 3 3 2 2 2 3 3 3 3 3 3 3 3 3 4 4 3 3 3 3 2 2 2 2 3 3 3 2 2
4 4 7 4 4 3 1 2 2 2 2 1 1 1 3 4 5 4 3 1 0 1 2 2 1 2 3 2 3 3 2 2 3 2 2 2 2 2 3 3 3 3 3 3 3 3 3 2 2
5 6 4 2 2 2 2 1 2 5 3 6 6 5 4 4 3 3 3 3 2 1 2 2 2 2 1 1 2 2 2 2 2 2 2 2 2 2 2 2 2 3 3 2 3 2 1 2 2
4 3 3 1 1 1 2 2 1 5 6 4 6 7 6 6 5 5 4 3 2 2 3 2 2 2 2 1 1 1 1 1 1 2 1 1 1 1 1 1 1 1 1 1 1 1 1 2 2
3 2 1 1 1 1 1 2 3 5 5 2 3 4 6 6 5 5 4 4 3 3 3 3 2 2 2 1 1 1 1 1 1 1 1 1 1 2 2 2 1 1 1 1 2 2 3 3 3
3 1 1 2 1 1 3 3 3 7 3 3 5 6 6 7 6 4 4 4 5 4 4 3 3 3 2 2 2 2 2 2 2 1 2 2 1 1 2 3 2 2 2 2 2 3 4 3 3
2 1 3 2 2 2 2 5 7 7 3 4 5 6 6 6 6 7 7 6 6 5 4 4 4 3 2 3 3 2 2 2 2 2 2 3 2 2 2 3 3 3 3 2 2 3 3 3 3
3 2 2 3 2 2 5 8 5 3 5 6 6 5 6 7 7 7 7 6 6 5 4 4 4 3 3 3 3 2 2 2 2 3 3 3 4 4 3 3 4 4 3 2 3 3 3 4 4
1 3 4 4 2 3 5 8 5 1 5 6 7 6 6 6 6 6 6 7 6 5 5 4 4 4 4 4 3 3 3 3 3 3 3 4 5 5 4 4 4 4 3 3 4 3 3 4 4
6 5 4 5 3 3 5 9 8 4 5 8 8 7 6 7 8 6 6 6 5 5 5 5 4 4 4 3 3 3 3 3 3 3 4 5 5 5 4 4 4 3 4 4 4 4 3 3 4
5 5 4 4 2 3 7 11 12 7 6 8 8 7 7 9 7 5 5 5 4 4 4 5 4 4 3 2 2 3 3 4 4 4 5 5 6 6 5 5 4 4 4 5 5 4 3 2 2
3 3 3 3 1 3 5 11 11 9 8 8 9 8 8 7 5 4 4 4 5 5 5 5 5 5 4 3 3 3 3 4 4 4 4 5 5 6 5 5 5 5 4 5 5 4 3 2 3
5 6 5 4 3 2 4 8 6 5 4 5 6 7 7 7 7 5 5 5 5 5 6 6 6 5 5 3 2 2 2 3 2 3 3 4 5 6 6 6 6 6 5 5 5 5 5 4 3
6 5 5 3 1 3 1 5 6 4 4 6 7 6 7 6 6 6 6 5 6 6 6 6 5 5 4 3 3 3 3 4 5 4 4 5 5 6 6 6 6 6 5 6 6 5 5 5 5
5 3 4 2 3 2 1 3 9 2 5 7 7 8 7 6 6 7 6 6 6 6 5 5 5 4 4 4 4 4 4 4 4 4 4 5 5 5 5 5 5 6 5 6 6 5 5 5 5
6 5 5 4 3 4 5 6 8 5 7 5 5 6 6 6 5 6 5 5 4 4 4 4 4 4 4 4 4 4 5 4 4 4 4 4 4 4 4 5 5 5 5 6 6 6 6 5 5
5 5 2 2 1 7 3 5 10 8 6 6 6 6 6 5 5 5 4 4 4 4 4 4 4 5 4 4 4 5 5 5 5 5 5 4 4 3 4 4 4 5 5 6 5 5 5 6 6
7 7 7 6 6 4 2 7 8 6 4 5 5 4 3 4 4 5 6 5 5 5 5 4 5 5 5 4 5 5 5 4 4 4 4 4 4 4 4 4 4 5 5 5 4 4 5 5 6
7 5 5 5 2 3 6 7 8 4 4 3 3 2 4 4 5 6 6 5 5 5 6 5 5 5 5 5 5 4 4 4 4 4 4 4 4 4 4 4 4 4 4 4 4 4 5 5 5
5 8 5 5 5 5 6 6 5 5 5 4 4 4 5 4 4 5 5 5 5 6 6 5 5 6 5 5 4 4 4 4 4 3 4 4 4 4 4 3 4 4 3 3 4 3 4 4 4
6 5 5 5 4 5 4 7 6 7 5 5 6 5 5 4 5 6 6 5 5 5 4 4 4 4 4 4 3 3 3 3 3 3 4 4 4 4 4 4 4 3 3 3 3 3 4 4 3
5 7 8 6 5 4 4 7 3 5 4 4 5 5 5 5 5 5 5 4 4 4 3 3 3 3 3 3 2 3 3 3 2 3 3 3 3 4 3 3 3 2 2 2 3 3 3 4 4
Wind_Direction
357 30 74 60 61 60 233 240 220 204 192 134 99 113 130 132 148 158 187 86 95 75 36 64 74 72 70 74 77 76 76 76 74 74 77 81 84 85 90 98 100 112 122 125 131 138 136 139 138
9 81 60 66 102 169 253 235 210 202 169 128 76 87 90 85 68 111 126 82 88 78 51 67 75 72 70 69 71 76 75 73 72 70 72 74 79 82 85 92 93 96 114 129 129 129 131 133 138
117 62 87 89 145 190 220 213 200 169 116 119 87 67 111 128 136 146 186 123 83 62 53 69 79 74 69 67 65 66 67 69 67 65 64 65 69 80 80 89 95 95 99 115 130 129 129 132 139
95 57 62 95 212 227 226 239 171 131 77 65 105 80 69 39 172 166 110 107 97 67 57 71 81 76 70 67 64 61 59 59 59 57 55 52 52 60 72 77 94 101 105 104 118 126 129 134 141
62 84 90 194 240 250 245 249 173 133 121 65 103 111 72 353 48 93 100 112 111 88 59 73 79 76 71 67 65 63 59 53 51 49 47 43 47 51 55 65 72 108 125 126 118 125 125 131 144
63 77 121 212 239 258 259 235 150 135 130 108 113 119 160 15 84 99 100 109 112 101 59 58 70 70 69 66 63 61 60 52 47 41 38 35 33 39 33 37 36 65 159 147 137 134 138 133 148
114 120 176 199 217 246 228 148 146 145 142 170 147 125 173 274 163 105 83 77 72 72 64 47 49 59 63 62 57 55 54 51 44 36 30 26 23 25 21 20 14 359 183 169 160 155 152 155 147
125 120 167 206 202 229 218 103 117 135 155 141 138 148 187 208 143 96 74 61 53 49 47 42 41 44 41 42 48 47 44 41 37 28 23 17 13 11 11 3 356 347 288 215 196 193 180 176 171
94 94 202 212 196 216 165 113 50 66 108 87 143 174 187 135 116 92 68 42 36 25 9 17 26 26 25 28 26 27 27 21 17 13 9 9 8 357 354 353 325 298 295 267 228 217 212 197 189
107 172 218 217 194 186 158 146 155 100 94 125 56 31 92 114 121 118 124 126 30 326 325 339 351 0 12 8 8 10 10 8 8 4 3 11 360 343 337 336 318 295 290 282 255 231 219 195 170
157 194 216 235 213 167 149 154 158 143 207 205 190 178 149 140 144 160 185 200 223 257 308 316 309 336 1 3 4 13 8 6 3 358 354 0 9 352 350 351 324 300 292 284 260 235 198 177 169
168 226 208 224 169 147 168 163 185 197 222 207 184 169 162 175 190 196 204 223 237 262 276 291 306 315 317 346 336 344 360 358 352 331 313 28 12 339 325 322 301 295 292 275 255 226 213 200 197
192 228 219 208 160 191 177 215 221 248 247 195 155 170 187 198 212 218 214 221 233 247 264 277 288 295 298 306 301 312 279 282 294 310 281 233 246 258 274 271 277 258 273 262 260 226 216 214 215
195 195 288 287 241 230 207 253 226 253 219 172 177 199 209 211 215 220 225 231 236 237 250 267 278 271 282 280 271 268 270 284 290 301 276 250 238 256 267 268 272 264 246 249 249 238 221 216 219
97 70 322 270 211 223 148 272 232 238 176 192 205 212 220 225 221 222 224 227 233 238 244 256 266 269 275 278 273 280 274 278 274 285 269 259 255 251 262 263 262 262 247 247 263 252 227 221 227
69 93 262 272 181 177 154 249 254 205 174 208 220 224 230 236 231 233 232 235 238 240 247 255 269 276 277 273 275 277 273 265 267 274 267 260 255 248 250 253 259 265 245 237 244 239 242 230 228
62 206 228 273 203 165 184 242 269 203 183 220 232 234 237 245 249 243 238 236 235 235 242 253 261 260 266 270 269 267 267 258 260 267 266 261 257 250 246 248 257 261 253 235 240 241 237 238 237
206 206 224 235 234 172 218 256 275 259 212 235 244 246 243 246 248 244 235 236 239 243 243 250 260 257 259 266 274 273 270 262 257 256 259 257 257 253 249 250 254 253 251 244 231 233 235 237 234
162 175 220 250 242 202 242 262 270 261 234 242 247 244 245 250 257 251 237 234 239 246 248 249 251 259 257 269 272 271 267 267 265 258 258 255 255 251 250 251 248 242 241 238 232 225 225 238 215
168 190 234 283 293 216 269 274 268 247 232 230 231 233 237 250 265 260 248 237 238 241 247 250 255 258 254 253 259 251 263 263 259 258 262 259 255 249 250 237 239 239 242 239 232 217 215 234 198
208 200 209 231 332 336 317 297 261 253 228 232 228 226 231 232 239 246 245 243 250 253 249 253 258 257 258 261 282 302 300 296 278 278 270 260 261 254 247 240 237 237 233 233 229 217 209 222 217
221 211 198 203 205 286 347 284 276 257 262 242 238 235 237 239 238 240 240 245 249 252 255 253 254 256 259 251 251 261 271 278 278 274 271 272 264 259 254 244 237 238 237 232 228 224 216 210 213
184 133 144 159 170 295 243 229 281 273 256 251 239 236 239 237 232 235 235 238 249 251 253 256 258 263 262 254 241 241 259 268 280 285 279 276 266 258 257 250 237 236 240 234 228 228 222 211 207
138 87 67 59 83 262 221 196 272 232 222 244 240 240 244 243 241 244 246 247 253 262 263 261 261 271 274 260 249 240 248 261 275 286 279 280 276 264 255 248 237 238 240 235 230 226 220 212 203
129 117 65 352 302 246 190 210 250 244 224 224 239 247 249 241 235 244 250 253 264 272 272 268 260 269 269 262 260 250 244 242 248 263 266 275 278 277 262 257 244 243 241 235 228 224 218 206 200
179 161 168 196 222 263 218 235 254 256 247 244 248 248 253 249 243 242 244 245 253 261 264 265 260 266 263 259 265 261 248 245 253 251 257 258 260 264 263 255 250 246 241 234 222 218 215 205 204
152 189 167 139 161 267 258 274 297 252 267 265 266 269 258 252 254 253 253 251 254 258 257 253 255 265 264 258 260 260 253 251 255 255 258 259 260 265 262 259 257 253 238 226 213 217 216 206 207
156 148 128 150 175 242 274 261 247 256 258 274 274 268 267 268 274 268 259 258 261 257 259 256 249 253 258 257 253 259 257 257 253 252 255 258 260 263 264 262 258 255 238 220 212 216 215 207 209
149 152 152 147 169 179 248 266 224 217 235 252 263 266 272 274 273 271 272 274 273 274 268 262 265 271 269 263 263 266 270 274 271 260 258 253 254 256 254 253 253 250 234 211 207 217 207 207 212
186 179 161 168 206 192 207 266 271 213 248 256 270 278 281 277 276 273 274 283 283 279 278 273 277 279 271 264 270 268 271 282 275 266 265 255 246 250 252 253 247 237 222 207 208 213 207 201 202
Height
1480 1481 1484 1487 1492 1501 1500 1492 1488 1486 1485 1484 1484 1485 1487 1490 1494 1500 1497 1496 1497 1498 1499 1499 1500 1501 1502 1502 1503 1504 1504 1505 1505 1506 1506 1507 1507 1508 1508 1509 1509 1510 1510 1511 1512 1513 1513 1514 1515
1480 1482 1486 1487 1496 1504 1498 1489 1486 1484 1483 1484 1484 1485 1487 1489 1491 1493 1494 1495 1497 1498 1498 1499 1500 1501 1501 1502 1502 1503 1503 1504 1504 1505 1505 1506 1506 1507 1507 1507 1508 1509 1509 1510 1511 1511 1512 1513 1514
1480 1483 1486 1489 1497 1499 1490 1483 1483 1482 1483 1483 1485 1486 1488 1490 1491 1493 1494 1495 1496 1497 1498 1499 1499 1500 1500 1501 1501 1501 1502 1502 1503 1503 1504 1504 1505 1505 1505 1506 1506 1507 1508 1508 1509 1510 1511 1512 1513
1481 1484 1486 1493 1494 1490 1485 1481 1481 1481 1482 1483 1484 1487 1489 1491 1492 1493 1494 1495 1496 1497 1498 1498 1499 1499 1499 1500 1500 1500 1500 1500 1501 1501 1502 1502 1503 1503 1503 1504 1504 1505 1506 1507 1507 1508 1509 1510 1511
1481 1483 1489 1494 1491 1486 1482 1480 1481 1481 1482 1483 1485 1487 1489 1491 1492 1493 1494 1495 1496 1496 1497 1497 1498 1498 1498 1498 1498 1498 1499 1499 1499 1499 1500 1500 1500 1500 1501 1501 1502 1503 1503 1504 1505 1506 1507 1508 1509
1481 1483 1494 1495 1489 1484 1481 1479 1480 1481 1483 1484 1485 1487 1489 1491 1492 1493 1494 1495 1496 1496 1496 1496 1497 1497 1497 1497 1497 1497 1497 1497 1497 1497 1497 1498 1498 1498 1499 1499 1499 1500 1501 1502 1503 1504 1505 1506 1506
1481 1486 1491 1490 1488 1483 1480 1479 1479 1480 1482 1484 1484 1487 1488 1490 1491 1493 1493 1494 1495 1495 1495 1495 1495 1495 1495 1495 1495 1495 1495 1495 1495 1495 1495 1495 1495 1495 1496 1496 1497 1497 1498 1499 1500 1501 1502 1503 1504
1479 1484 1487 1488 1486 1482 1478 1478 1479 1480 1481 1483 1484 1485 1487 1489 1490 1492 1493 1494 1494 1494 1494 1494 1494 1494 1494 1493 1493 1493 1493 1492 1492 1492 1493 1493 1493 1493 1493 1493 1494 1495 1495 1496 1497 1498 1499 1500 1501
1479 1487 1489 1485 1483 1479 1477 1478 1479 1480 1481 1482 1483 1484 1486 1487 1489 1490 1491 1492 1493 1493 1493 1493 1493 1492 1492 1492 1491 1491 1490 1490 1490 1490 1490 1490 1490 1490 1490 1490 1491 1492 1492 1493 1494 1495 1496 1497 1498
1478 1486 1482 1478 1477 1477 1477 1477 1478 1479 1480 1481 1482 1483 1485 1486 1488 1489 1489 1490 1491 1491 1491 1491 1491 1490 1490 1489 1489 1488 1488 1487 1487 1487 1487 1486 1487 1487 1487 1487 1488 1488 1489 1490 1490 1491 1492 1493 1494
1476 1480 1477 1476 1475 1476 1476 1477 1478 1478 1480 1479 1479 1481 1483 1485 1486 1487 1488 1489 1489 1489 1489 1489 1489 1488 1488 1487 1486 1485 1485 1484 1484 1484 1483 1483 1483 1483 1483 1484 1484 1485 1485 1486 1486 1487 1488 1489 1490
1476 1476 1475 1475 1475 1475 1476 1476 1477 1476 1476 1477 1478 1479 1481 1482 1484 1485 1486 1487 1487 1487 1487 1487 1487 1486 1485 1484 1483 1483 1482 1481 1481 1480 1480 1479 1479 1479 1479 1480 1480 1481 1481 1482 1482 1483 1484 1485 1486
1475 1474 1474 1474 1474 1475 1475 1475 1476 1474 1474 1475 1477 1478 1479 1480 1481 1483 1484 1485 1485 1485 1485 1484 1484 1483 1482 1481 1480 1479 1479 1478 1477 1477 1476 1476 1475 1475 1475 1475 1476 1476 1477 1478 1478 1479 1480 1481 1482
1473 1474 1474 1473 1473 1474 1474 1474 1475 1470 1471 1473 1474 1475 1476 1477 1478 1480 1481 1481 1482 1482 1481 1481 1481 1480 1479 1478 1477 1476 1475 1474 1474 1473 1472 1472 1472 1471 1471 1471 1471 1472 1473 1473 1474 1475 1475 1476 1477
1473 1475 1474 1472 1472 1472 1474 1474 1470 1467 1470 1470 1471 1473 1474 1475 1476 1477 1477 1478 1478 1478 1478 1478 1477 1476 1475 1474 1473 1472 1471 1470 1470 1469 1469 1468 1468 1467 1467 1467 1467 1467 1468 1469 1470 1470 1471 1472 1473
1474 1477 1477 1472 1471 1472 1476 1473 1466 1466 1467 1467 1468 1470 1471 1472 1473 1474 1474 1475 1475 1475 1474 1474 1473 1472 1471 1470 1469 1468 1467 1467 1466 1465 1465 1464 1464 1463 1463 1462 1462 1463 1464 1464 1465 1465 1466 1467 1468
1478 1480 1477 1473 1471 1471 1473 1470 1464 1464 1465 1465 1465 1466 1467 1468 1469 1470 1471 1471 1471 1471 1470 1470 1469 1468 1467 1466 1465 1464 1463 1462 1462 1461 1460 1460 1459 1459 1458 1458 1458 1459 1459 1459 1460 1460 1461 1462 1463
1477 1479 1476 1474 1471 1472 1472 1468 1463 1462 1463 1462 1462 1463 1463 1464 1464 1466 1467 1467 1467 1467 1466 1466 1465 1464 1463 1462 1461 1460 1459 1458 1457 1456 1456 1455 1455 1454 1454 1454 1454 1454 1454 1454 1455 1456 1457 1458 1459
1471 1474 1474 1471 1470 1471 1470 1465 1460 1459 1460 1459 1458 1459 1459 1460 1461 1462 1463 1463 1463 1463 1462 1461 1460 1459 1459 1457 1456 1455 1453 1453 1452 1451 1451 1450 1450 1450 1449 1449 1449 1450 1449 1450 1451 1451 1452 1453 1454
1470 1473 1473 1471 1469 1470 1468 1463 1456 1454 1454 1453 1453 1454 1455 1456 1457 1458 1458 1458 1458 1458 1457 1457 1456 1455 1454 1453 1452 1451 1450 1448 1447 1447 1446 1446 1445 1445 1445 1444 1444 1445 1445 1445 1446 1447 1447 1448 1450
1470 1471 1471 1471 1470 1469 1469 1461 1454 1449 1449 1449 1449 1449 1451 1452 1452 1453 1453 1454 1454 1453 1453 1453 1452 1451 1450 1449 1448 1447 1446 1445 1443 1442 1441 1441 1440 1440 1440 1440 1440 1440 1440 1440 1441 1442 1443 1443 1445
1467 1466 1467 1469 1473 1475 1472 1469 1452 1449 1448 1446 1445 1445 1446 1447 1448 1449 1449 1449 1449 1449 1449 1449 1448 1447 1446 1445 1444 1442 1441 1439 1438 1437 1436 1436 1436 1435 1435 1435 1435 1435 1435 1435 1436 1437 1438 1440 1440
1463 1464 1467 1470 1473 1476 1475 1475 1455 1449 1446 1442 1441 1441 1441 1443 1444 1444 1444 1445 1445 1446 1445 1445 1444 1443 1442 1441 1440 1438 1437 1436 1434 1433 1432 1431 1431 1431 1431 1431 1431 1431 1431 1431 1431 1432 1434 1435 1436
1461 1467 1471 1476 1477 1476 1470 1473 1456 1450 1441 1438 1437 1437 1437 1438 1439 1440 1441 1441 1441 1441 1441 1440 1439 1438 1438 1437 1436 1434 1433 1431 1430 1429 1428 1427 1427 1426 1426 1426 1426 1426 1426 1426 1427 1428 1429 1431 1432
1460 1468 1477 1476 1482 1473 1468 1468 1452 1438 1436 1435 1434 1433 1433 1434 1435 1436 1436 1436 1437 1436 1436 1436 1435 1434 1434 1432 1431 1430 1429 1428 1427 1425 1424 1423 1422 1422 1422 1422 1422 1422 1422 1423 1423 1424 1425 1426 1427
1458 1460 1468 1469 1471 1468 1468 1463 1443 1433 1432 1431 1431 1431 1431 1431 1432 1432 1432 1432 1432 1432 1432 1432 1431 1430 1429 1428 1427 1426 1425 1424 1423 1422 1421 1420 1419 1419 1418 1418 1418 1418 1418 1419 1419 1420 1421 1422 1423
1457 1460 1460 1470 1472 1468 1462 1456 1441 1430 1430 1429 1429 1428 1428 1428 1428 1428 1429 1429 1429 1428 1428 1427 1427 1426 1425 1424 1424 1423 1422 1421 1420 1419 1418 1417 1416 1416 1415 1415 1415 1415 1415 1415 1416 1416 1417 1418 1419
1450 1455 1464 1467 1464 1458 1451 1451 1443 1430 1428 1427 1427 1426 1425 1426 1426 1425 1425 1425 1425 1425 1425 1424 1423 1422 1421 1421 1420 1419 1418 1417 1417 1415 1415 1414 1413 1413 1412 1412 1412 1412 1412 1412 1412 1413 1413 1414 1415
1452 1455 1457 1464 1463 1460 1454 1442 1429 1427 1425 1426 1425 1424 1423 1423 1423 1422 1422 1422 1422 1422 1421 1420 1419 1418 1417 1417 1417 1416 1415 1414 1413 1412 1412 1411 1410 1410 1410 1409 1409 1408 1409 1409 1409 1409 1410 1411 1411
1444 1446 1452 1456 1462 1465 1459 1443 1423 1424 1424 1424 1423 1422 1422 1422 1421 1420 1420 1419 1419 1418 1417 1417 1416 1416 1415 1415 1414 1414 1413 1411 1410 1410 1409 1409 1408 1408 1407 1407 1406 1405 1406 1406 1406 1407 1407 1408 1408